Location: Dana
(41.8364°N, 106.7042°W)
Time: 12:06:51
(UTC+00:00)

Tiros 1 despin weight - Pass Details

Date: 11 May 2026
Orbit: 554 x 591 km, 48.2° (Epoch: 10 June)

Event Time Altitude Azimuth Distance (km) Brightness Sun altitude
Rises 13:32:58 0° 231° (SW) 2,740 ? 17.3°
Reaches altitude 10° 13:35:14 10° 228° (SW) 1,841 ? 17.7°
Maximum altitude 13:39:23 63° 148° (SSE) 622 ? 18.5°
Drops below altitude 10° 13:43:32 10° 67° (ENE) 1,836 ? 19.3°
Sets 13:45:48 0° 64° (ENE) 2,731 ? 19.7°
